Theta_e
312 312 313 312 312 315 316 318 318 317 316 314 312 312 310 307 306 306 307 308 308 308 307 307 307 308 309 309 310 310 310 310 311 311 311 312 311 311 309 309 308 309 310 312
312 312 312 312 312 312 311 319 320 316 314 313 312 310 308 306 305 305 306 307 309 308 307 304 303 305 306 307 308 309 310 311 312 312 312 312 311 310 310 309 308 309 311 312
313 312 311 311 312 313 312 315 316 319 313 311 311 313 310 306 305 305 304 304 304 304 304 303 301 299 302 303 304 306 308 309 309 310 310 310 311 310 310 310 310 309 311 312
311 309 311 311 312 312 314 312 314 314 312 314 313 315 311 308 305 303 303 302 301 301 300 299 298 297 297 298 301 304 306 307 307 308 308 308 308 309 309 309 310 310 311 310
314 310 310 312 313 313 314 312 313 313 312 312 315 317 313 308 307 304 302 301 299 298 298 297 296 295 294 296 297 300 303 305 305 306 307 307 308 308 308 308 309 310 310 310
310 309 310 311 312 312 312 315 315 314 314 316 311 318 315 309 308 303 300 298 297 297 296 294 293 292 292 293 295 296 299 300 303 304 305 305 305 305 306 306 306 307 308 308
311 311 309 309 313 312 316 318 320 316 315 314 313 314 314 305 304 302 299 295 294 294 293 292 291 290 290 290 291 292 294 295 298 301 301 300 300 300 299 300 300 302 303 304
311 312 310 309 310 312 315 318 319 319 319 316 312 319 314 303 300 298 296 294 292 291 290 290 290 289 289 289 290 290 291 291 293 295 296 297 297 296 295 295 296 296 297 298
310 310 308 309 310 311 313 314 313 313 308 316 315 309 303 300 299 297 295 294 292 291 290 289 289 288 288 288 288 288 289 289 290 290 291 292 292 293 292 293 293 293 294 295
309 310 308 309 309 309 311 311 315 312 313 317 313 313 311 303 300 297 295 293 291 290 289 288 288 287 286 286 286 286 286 286 286 286 286 285 286 286 287 289 289 289 290 291
307 309 309 309 310 310 310 312 311 312 311 315 314 313 304 303 300 297 294 293 291 290 289 287 286 285 284 283 283 283 283 283 283 283 283 283 283 283 283 283 284 284 285 286
311 308 310 309 307 307 309 311 311 313 314 308 310 307 299 301 298 296 294 292 291 289 287 285 284 283 282 282 282 282 281 281 281 281 281 281 282 282 282 282 282 282 283 283
311 303 304 310 306 306 309 308 309 308 308 309 310 307 298 297 296 295 293 292 290 288 285 283 283 282 281 281 281 281 281 280 280 280 280 280 280 280 280 280 281 281 281 281
311 309 307 312 309 309 310 309 308 308 309 309 307 304 299 297 296 294 293 291 289 287 284 282 282 281 281 280 280 280 280 279 279 279 279 279 279 279 279 279 279 280 280 280
310 312 311 310 310 310 308 309 308 307 308 309 308 304 301 298 296 294 293 290 289 286 283 282 282 281 280 280 280 280 279 279 279 279 278 278 278 278 278 278 278 278 279 278
309 313 309 312 310 308 310 310 306 306 307 307 304 305 301 298 295 293 292 290 288 286 284 283 282 281 280 280 279 279 278 278 278 278 277 277 278 277 277 277 278 278 278 278
310 310 310 308 310 310 313 311 309 307 305 305 307 305 298 296 295 294 292 290 288 286 284 282 281 281 280 280 279 279 278 278 277 277 276 276 276 276 276 276 276 276 276 276
310 309 307 308 310 315 307 300 303 306 301 302 301 299 298 297 296 294 292 290 287 285 283 281 280 280 280 279 279 278 277 277 276 276 275 275 275 275 275 275 275 275 275 275
305 309 305 311 307 305 303 300 304 308 309 300 300 297 294 293 292 291 289 288 286 284 282 280 280 280 279 279 278 278 277 276 276 275 275 275 275 275 274 275 275 275 275 275
301 303 308 295 307 308 306 298 298 301 309 299 297 295 294 295 297 294 287 285 284 283 281 280 279 279 279 278 278 277 276 276 275 275 274 274 274 274 274 274 274 273 273 273
304 302 307 298 300 298 298 297 296 308 307 298 297 295 294 297 293 290 286 284 283 282 280 279 279 278 278 278 277 277 276 275 274 274 273 273 273 273 272 272 272 272 272 272
302 304 303 296 299 307 295 296 304 299 295 295 295 294 294 289 288 287 285 282 282 280 280 279 278 278 277 277 277 276 276 274 274 273 273 272 272 272 272 272 271 271 271 271
300 297 300 300 301 289 294 293 290 291 294 293 293 293 289 287 287 285 283 281 281 280 279 279 278 277 277 277 277 276 275 274 273 273 272 272 272 272 272 271 271 270 270 270
287 282 291 295 289 287 288 288 288 290 292 292 291 289 288 287 285 284 283 281 280 279 278 278 278 277 276 276 276 276 274 273 273 272 272 272 271 271 271 270 270 270 269 269
289 287 289 290 289 288 286 288 291 290 289 289 288 287 287 286 285 284 283 281 280 279 278 278 277 277 276 276 275 275 274 273 273 272 272 271 271 270 270 270 270 270 270 270
285 289 293 295 291 293 293 291 289 288 289 288 287 284 285 286 284 283 282 281 280 279 278 278 277 277 276 276 275 275 274 273 273 272 271 270 270 269 269 270 270 270 270 270
Wind_Speed
2 4 5 9 8 10 16 5 11 5 3 6 5 4 6 7 9 9 8 8 9 10 14 22 27 25 27 23 22 18 14 12 7 5 5 7 10 11 12 11 9 9 10 9
4 7 8 5 3 2 4 16 15 5 4 5 4 4 5 6 5 6 9 10 8 9 11 20 24 26 27 22 21 19 18 16 15 11 9 8 8 10 11 11 10 10 11 12
8 5 9 6 4 2 2 4 7 5 3 5 6 2 4 3 5 7 7 9 9 10 11 13 17 23 24 24 22 20 18 18 18 16 14 12 11 14 16 16 13 12 12 13
4 3 10 7 4 5 3 4 6 4 3 3 4 4 3 5 4 4 5 6 6 8 9 13 15 20 22 20 19 19 19 19 20 18 19 17 17 14 14 13 13 13 12 12
5 7 5 5 7 8 3 3 3 4 3 2 1 2 1 6 3 4 2 4 5 7 8 10 14 14 16 18 19 19 19 19 18 17 15 17 18 14 15 15 14 15 15 16
3 1 5 7 3 6 4 5 6 4 3 0 7 6 4 5 5 5 3 3 5 6 7 11 12 13 18 17 19 19 20 21 18 16 16 17 19 18 17 18 19 18 17 19
2 2 2 4 6 5 2 7 3 3 2 4 3 3 4 5 4 7 8 5 4 6 7 10 13 14 17 20 20 19 20 21 20 18 18 19 18 19 20 20 19 20 20 21
6 2 6 3 7 8 7 8 5 6 4 4 2 6 2 4 7 10 9 7 5 5 5 8 12 14 15 18 19 20 20 21 20 20 20 18 18 18 19 19 18 19 20 20
6 4 2 2 3 9 6 5 5 3 1 2 4 2 3 7 8 9 9 8 6 5 5 7 12 14 15 18 19 20 20 22 22 22 22 22 21 20 20 20 19 20 20 20
6 4 1 3 3 1 6 7 3 1 4 5 4 4 5 13 13 10 9 8 7 6 5 7 10 13 15 18 19 21 22 24 24 24 25 25 25 25 25 25 25 25 24 24
4 3 3 5 6 8 3 4 4 3 4 4 3 5 2 13 15 14 10 9 8 7 6 6 10 13 15 18 21 23 24 25 25 25 25 25 25 25 26 26 25 25 25 26
4 5 3 5 2 1 1 5 6 4 4 3 2 4 5 7 13 13 11 9 8 8 6 9 11 14 17 19 21 23 23 24 23 23 23 24 23 24 25 26 25 24 24 24
7 1 3 3 4 1 5 5 5 4 3 6 5 4 4 8 10 11 14 11 9 8 7 9 11 13 16 19 21 22 21 21 21 22 23 24 24 24 24 24 24 24 24 25
5 3 5 8 2 6 6 6 5 5 3 4 5 4 6 9 13 12 12 12 10 8 7 7 9 12 15 18 19 19 19 20 20 21 23 24 23 23 23 23 24 25 25 25
5 5 4 2 2 2 3 8 10 9 8 7 6 8 10 17 15 15 14 13 12 10 9 7 8 12 14 16 16 17 18 18 19 21 22 22 21 21 22 23 24 23 24 25
1 4 4 2 2 3 1 5 8 6 5 3 5 5 1 14 12 13 15 15 13 12 11 9 12 12 12 13 14 14 16 17 18 20 20 19 19 20 21 22 23 23 23 24
6 6 3 3 3 1 5 11 9 5 4 9 8 5 9 13 16 19 17 16 14 13 12 11 14 14 14 14 13 14 14 14 17 17 17 17 18 19 21 21 22 23 24 25
8 5 2 3 3 5 1 1 1 5 4 5 4 11 17 15 10 12 13 16 15 14 13 15 17 18 16 14 13 12 12 13 14 14 15 15 16 17 19 20 22 23 23 25
2 6 4 4 5 5 3 6 7 8 7 9 8 9 9 14 9 3 11 13 13 17 19 20 24 21 18 15 13 11 11 12 12 13 13 14 14 15 18 20 21 21 21 22
4 5 4 3 5 8 3 4 3 3 5 13 13 16 20 15 8 6 12 13 18 21 24 26 25 22 19 15 12 10 10 9 11 11 11 11 11 12 14 15 16 16 17 16
4 3 5 3 2 7 4 5 3 5 5 9 12 19 20 10 2 11 16 15 24 26 27 29 26 23 19 16 12 10 8 8 7 6 6 7 9 9 10 11 14 14 15 16
5 6 4 3 2 7 7 4 9 3 3 7 11 15 16 7 11 18 17 17 24 24 27 28 26 22 18 15 12 10 7 4 3 4 4 6 7 8 9 12 15 16 17 17
2 5 5 7 6 2 7 1 1 3 4 5 11 12 11 14 12 16 15 18 22 26 26 28 27 23 17 14 11 10 7 4 3 3 4 5 6 8 10 11 13 16 17 18
3 3 2 2 2 3 4 2 2 4 4 7 8 14 14 12 16 15 14 18 22 23 24 28 27 24 20 15 12 10 8 5 3 3 3 3 5 6 8 9 11 13 14 16
3 6 5 4 3 2 5 7 6 5 7 9 10 9 11 18 15 15 13 19 22 23 26 30 28 25 22 18 14 11 7 5 4 3 2 1 3 4 6 8 9 9 9 11
6 7 5 6 9 5 5 14 9 9 11 13 13 8 13 20 17 18 17 21 24 24 29 28 27 24 22 19 16 12 8 7 6 6 4 2 0 2 5 7 8 8 9 11
Wind_Direction
168 112 171 189 182 161 179 243 257 158 219 93 90 75 30 38 42 47 46 41 45 44 34 41 49 60 70 65 68 64 66 60 65 64 51 46 44 33 29 32 35 35 37 34
68 200 207 157 182 121 56 167 234 294 97 79 132 93 78 54 56 50 51 47 51 56 43 39 40 49 60 58 60 60 59 59 57 57 58 60 45 26 29 28 34 35 30 29
160 200 158 154 164 213 199 186 192 177 114 59 129 188 191 61 80 64 54 56 46 49 49 43 38 42 55 52 50 54 57 61 61 61 67 70 66 49 36 36 34 31 29 33
176 130 157 151 157 154 209 210 135 116 122 211 204 252 212 159 112 72 64 58 48 50 53 48 40 39 43 46 54 58 59 62 62 60 57 53 50 43 32 26 35 37 29 26
187 150 153 155 178 163 190 143 128 127 159 61 263 32 193 140 195 162 136 106 67 58 54 48 44 44 43 47 50 55 61 66 64 63 61 61 52 43 39 35 38 41 32 28
127 123 151 187 136 141 128 57 48 63 112 262 213 164 228 188 187 162 155 105 78 69 60 56 48 45 46 47 52 54 58 59 66 65 61 58 57 49 46 37 31 32 26 23
111 168 226 138 100 42 80 85 21 360 344 219 138 174 253 152 145 156 153 128 78 70 64 56 47 39 40 44 48 51 55 55 60 63 61 55 57 53 48 42 32 30 27 24
152 218 177 185 154 170 163 160 155 186 206 222 130 221 213 118 108 113 119 115 93 65 60 59 53 50 47 50 54 56 56 56 57 61 60 56 51 51 46 41 39 33 29 24
147 211 42 191 141 145 175 191 192 101 339 98 208 289 182 144 140 135 136 125 111 88 65 60 62 61 63 64 62 62 64 63 62 62 63 62 58 53 48 45 42 36 32 27
195 125 179 157 119 342 153 156 120 96 182 227 216 248 224 193 181 163 156 146 133 117 94 72 64 66 70 73 73 73 71 70 68 68 67 65 63 61 59 55 50 46 41 38
136 99 193 135 204 170 164 180 195 144 173 196 179 247 22 192 175 170 162 155 142 134 116 92 75 75 77 78 77 78 75 72 70 68 66 64 61 60 57 53 49 47 45 43
182 119 152 194 254 238 221 208 184 167 208 230 224 269 330 159 163 151 153 149 138 130 118 106 97 90 83 82 82 80 76 73 68 66 63 59 57 53 51 46 44 42 41 41
178 275 87 25 342 345 203 197 186 123 98 200 158 251 45 109 136 150 147 147 141 134 121 114 101 93 92 90 86 80 74 69 66 64 61 56 53 51 49 46 43 41 41 40
110 133 169 191 178 140 195 185 184 172 169 171 218 178 205 178 160 156 154 148 146 140 133 122 109 104 100 97 90 84 75 68 65 63 60 56 50 48 47 45 43 41 40 38
143 141 156 173 351 161 182 181 181 196 203 190 202 192 198 190 174 169 158 150 148 147 146 141 132 122 114 102 93 85 76 69 64 60 58 55 52 48 46 44 41 39 39 37
123 128 136 159 178 62 257 222 200 188 169 148 151 238 153 158 149 160 164 160 159 159 155 149 143 135 122 115 100 88 77 68 64 59 54 52 51 45 41 40 37 36 35 34
130 133 136 213 147 129 293 215 196 191 190 157 189 180 145 155 173 175 167 165 163 161 157 154 151 142 138 128 114 93 81 71 64 58 51 48 46 41 38 36 33 32 30 27
164 117 82 126 127 238 217 16 286 177 209 176 109 159 170 175 154 156 165 160 160 159 155 151 149 146 144 136 119 104 89 74 65 58 49 44 41 37 33 31 29 27 25 21
109 158 143 176 186 294 260 200 173 179 245 180 155 131 115 116 99 42 159 161 160 157 153 153 158 154 148 144 133 112 92 76 64 54 45 40 37 33 27 26 24 23 20 17
92 92 140 152 162 203 244 163 189 133 288 179 152 155 147 144 162 196 163 142 140 145 151 153 158 154 151 147 144 124 100 77 58 48 42 38 36 33 27 24 23 22 21 13
133 93 154 162 204 285 183 162 149 117 238 156 158 157 158 172 175 139 140 139 148 149 151 159 159 158 156 154 153 132 112 81 61 56 51 45 39 38 25 27 25 21 17 14
158 144 166 93 100 269 153 84 168 197 23 142 144 160 157 114 119 137 138 140 144 145 151 163 161 162 161 163 165 148 130 110 81 76 70 55 45 38 29 27 25 23 16 13
212 179 173 183 207 247 201 135 224 150 138 157 142 156 137 133 140 145 145 147 151 153 159 167 167 165 167 172 175 165 164 155 136 116 101 68 48 38 33 27 19 20 19 16
262 177 174 76 241 222 232 279 227 187 145 137 143 146 143 140 148 144 146 151 155 159 161 170 172 173 174 177 180 185 178 174 166 149 121 63 41 39 33 31 24 20 16 13
162 137 166 274 266 313 248 220 186 163 130 119 132 146 146 144 153 152 156 160 162 162 169 176 179 182 184 184 186 188 189 190 187 179 165 92 33 30 25 27 23 17 15 1
191 173 170 215 196 169 212 185 177 158 164 155 147 129 154 158 157 157 157 162 162 166 176 182 188 189 189 191 195 198 205 210 210 201 197 203 190 20 14 10 14 21 8 358